Weather in Lisakovsk

Kazakhstan     52˚32′38″N   62˚29′33″E
temp.,
°C
wind,
m/s
gust,
m/s
humid.,
%
clouds,
%
prec.,
mm/h
press.,
hPa
HPBL,
m
1 december, tue
tue100:00−17˚ne33979 0.0 105337
03:00−19˚ne34974 0.0 105348
06:00−19˚ne33979 0.0 105341
09:00−20˚ne349816 0.0 105247
12:00−18˚ne359516 0.0 1052157
15:00−16˚ne35920 0.0 1051226
18:00−18˚ne34950 0.0 105166
21:00−19˚ne34968 0.0 105068
2 december, wed
wed200:00−19˚ne34964 0.0 105061
03:00−19˚ne34960 0.0 104865
06:00−19˚ne44960 0.0 104871
09:00−19˚ne44960 0.0 104680
12:00−16˚nne46933 0.0 1045178
15:00−14˚ne479294 0.0 1043292
18:00−15˚nne479697 0.0 1041138
21:00−16˚nne4796100 0.0 1041128
3 december, thu
thu300:00−16˚nne479583 0.0 1040117
03:00−17˚nne47960 0.0 1039120
06:00−17˚nne47960 0.0 1039128
09:00−17˚nne49950 0.0 1038158
12:00−15˚nne510910 0.0 1038266
15:00−13˚nne6108994 0.0 1037320
18:00−15˚nne5109290 0.0 1037252
21:00−14˚nne51191100 0.0 1037281
4 december, fri
fri400:00−14˚nne51190100 0.0 1038271
03:00−15˚nne51190100 0.0 1037276
06:00−15˚nne5989100 0.0 1037250
09:00−16˚nne5108991 0.0 1038228
12:00−16˚nne588793 0.0 1039236
15:00−14˚nne47864 0.0 1039241
18:00−17˚n47892 0.0 103997
21:00−17˚nne34880 0.0 104049
5 december, sat
sat500:00−18˚nne34870 0.0 104133
03:00−18˚nne33870 0.0 104126
06:00−18˚nne23860 0.0 104120
09:00−18˚nne23870 0.0 104120
12:00−16˚nne22870 0.0 104251
15:00−14˚nne23870 0.0 1041104
18:00−16˚nne22860 0.0 104120
21:00−17˚nne23860 0.0 104120